星链-35177(STARLINK-35177)

导读

STARLINK-35177是美国SpaceX星链星座的一员,于2025年9月19日发射升空,属于Starlink Gen2系列卫星,主要为全球提供低延迟、高速率的宽带互联网服务,运行在近地轨道,通过多星组网实现全球覆盖,支撑民用通信、偏远地区网络接入等应用,是星链大规模组网建设的组成部分。

Basic Information
目录编号:
65673
目录名称:
STARLINK-35177
国际标识:
2025-211X
轨道中心:
EARTH
卫星名称:
星链-35177
卫星全名:
星链-35177(STARLINK-35177)
卫星状态:
在轨 (已飞行267 天)
发射日期:
2025-09-19 UTC
国别 :
美国 (US)
星等 :
--
Orbit Information
数据来源 国际轨道数据 AOE轨道数据
星历时间 2026-06-13T10:21:34+0800
13小时前
查看轨道信息
2026-06-09T00:00:00+0800
4天前
查看轨道信息
半长轴 6927.619km 6927.658km
偏心率 0.0001856 0.0001638
轨道倾角 97.364° 97.388°
近地点辐角 104.059° 106.102°
升交点赤经 207.345° 203.111°
平近点角 256.084° 8.123°
近地点 548.196km 548.386km
远地点 550.768km 550.656km
周期 95.639分钟 95.640分钟
每日圈数 15.056597 15.056471
Detailed Information
固有亮度:
5
最大亮度:
2.5
卫星平台:
Starlink V1.0
覆盖范围:
全球
运营商:
太空探索技术公司
运营商所在国:
美国
制造商(研发单位):
太空探索技术公司
制造商所在国:
美国
使用方式:
暂无
Satellite Introduction
Starlink 计划是 SpaceX 推出的全球卫星互联网项目,通过发射低轨道卫星,为全球尤其是偏远地区提供高速、低延迟的互联网服务。自 2019 年起,Starlink 已部署数千颗卫星,旨在缩小全球数字鸿沟,推动互联网普及。该项目还为军事、航空等行业提供通信支持,带来广泛经济效益。
2D Orbit Map
3D Orbit Map
Orbit Altitude Analysis Chart
Orbit Inclination Analysis Chart
Orbit Comprehensive Analysis Chart
View Comprehensive Chart